Wind_Speed
23 22 21 21 20 19 19 18 18 18 18 18 19 19 20 20 21 22 24 25 26 27 28 29 30 30 31 31 32 33 33 33 33 33 32 32 32 31 30 29 28 27 26
24 24 24 23 22 22 21 21 20 20 20 20 21 21 22 23 24 25 26 27 28 29 31 31 32 32 32 32 33 34 34 34 34 34 33 33 33 32 31 30 29 28 27
26 26 26 26 25 24 24 23 23 22 22 23 23 24 24 25 26 28 29 30 31 32 33 33 33 33 33 33 34 34 35 35 35 35 35 35 34 33 32 31 30 28 27
27 28 28 28 27 27 26 26 26 26 26 26 26 27 27 28 29 31 31 32 33 34 34 35 35 34 34 34 34 34 35 36 36 36 36 35 35 34 33 32 30 29 28
29 29 30 30 30 30 30 30 29 29 29 29 29 30 31 32 33 34 34 35 35 36 36 36 36 35 34 34 34 35 36 36 37 37 36 36 35 34 33 32 31 30 29
31 31 32 32 32 32 33 33 33 32 33 33 32 33 34 35 36 37 37 37 38 38 38 37 36 36 35 35 36 36 37 37 37 37 37 37 35 34 33 32 31 30 30
32 32 33 33 34 35 36 36 36 36 37 37 37 36 37 38 38 39 40 40 40 40 39 38 37 37 37 37 37 37 37 37 38 38 38 36 36 35 34 33 32 31 30
35 35 35 35 35 36 38 38 39 39 39 40 41 41 40 39 41 41 42 42 41 41 40 39 38 38 38 38 38 38 38 38 38 38 38 36 36 35 34 33 32 31 30
38 38 38 38 38 39 40 40 40 41 41 42 44 44 44 43 42 41 42 42 42 42 40 39 39 39 38 38 38 39 39 39 39 38 38 36 35 34 33 33 32 31 30
41 41 41 41 41 42 42 43 43 43 44 45 45 46 47 46 44 42 41 42 42 41 40 40 40 39 39 39 39 39 39 39 39 38 38 36 35 33 33 32 32 31 30
43 43 44 44 43 44 45 45 46 46 47 47 46 46 46 45 45 45 43 42 42 42 41 40 40 40 40 40 40 40 40 39 39 38 37 35 34 33 32 31 31 30 29
46 46 47 47 47 48 48 48 48 47 46 47 46 46 45 46 46 46 45 44 43 43 42 42 42 41 41 41 41 40 40 39 38 37 36 34 32 32 31 30 29 29 29
47 48 48 48 48 49 49 49 48 48 48 48 48 47 48 47 47 46 46 45 45 44 44 43 43 42 41 41 41 41 40 39 38 36 34 32 31 30 29 29 28 28 28
47 48 48 49 49 50 50 49 49 50 50 50 50 50 49 48 47 47 46 46 45 45 45 44 43 43 43 42 42 41 40 39 36 34 32 31 30 29 28 28 27 27 27
50 50 50 50 51 52 52 52 52 51 51 51 51 51 50 49 48 48 47 47 46 46 45 44 44 44 43 42 41 40 39 37 35 32 31 29 28 27 27 26 26 26 25
50 52 52 53 53 53 53 53 53 53 53 53 52 51 51 50 49 48 48 47 47 46 45 45 44 44 42 41 40 39 37 35 33 31 29 28 27 27 26 26 25 25 24
52 52 53 53 53 53 53 53 52 52 52 52 52 51 51 50 49 48 48 47 46 46 45 45 44 42 41 40 39 37 35 33 31 30 28 27 27 26 26 25 25 24 24
50 50 50 51 51 51 51 51 51 51 50 50 50 49 49 49 48 47 46 46 45 45 44 43 42 41 39 38 36 34 32 31 30 29 28 27 27 26 25 25 25 25 25
47 47 48 48 48 48 49 49 49 49 49 49 48 48 47 46 46 45 44 44 44 43 42 41 40 38 37 35 33 32 32 30 29 28 27 27 26 26 26 26 26 26 26
45 45 45 46 46 46 47 48 48 48 48 47 46 46 45 44 44 43 43 42 41 40 40 39 37 36 34 33 32 31 31 30 29 28 27 27 27 26 26 26 26 27 27
43 44 44 44 44 44 44 45 45 45 45 44 43 43 43 42 42 41 40 40 39 38 37 36 34 33 32 32 31 31 30 29 29 28 28 27 27 27 27 28 28 28 28
42 43 43 43 42 43 43 43 43 43 43 42 41 41 41 41 40 39 39 38 37 35 34 33 33 32 32 31 31 30 30 29 29 29 29 28 29 29 29 29 29 30 30
42 42 42 41 41 41 42 42 43 42 41 40 40 40 39 39 38 38 37 36 35 34 33 32 32 32 31 31 31 30 30 30 30 30 30 30 30 31 31 31 31 32 32
41 41 41 41 41 41 41 41 41 40 39 39 39 38 37 37 37 36 35 34 33 32 31 31 31 31 30 30 31 31 31 31 31 31 31 32 32 33 33 33 34 34 34
40 40 40 40 40 40 39 39 38 38 37 37 36 36 35 35 34 33 32 31 31 30 30 30 30 30 30 31 31 31 31 31 32 32 33 33 34 34 35 35 36 36 36
40 39 39 39 38 38 37 36 36 35 34 33 33 32 32 32 31 31 31 30 30 29 29 29 30 30 31 31 31 32 32 32 33 34 34 35 35 36 36 37 37 37 38
Wind_Direction
245 247 249 253 257 261 265 269 272 276 280 284 287 291 294 296 298 300 302 304 306 308 309 309 310 311 312 313 314 315 316 316 316 315 313 312 309 307 305 302 299 297 295
246 247 250 254 258 262 266 270 274 277 280 284 287 290 292 294 296 298 300 302 304 305 306 307 308 308 309 311 312 312 313 313 313 313 311 310 308 306 304 301 298 296 294
249 249 251 255 259 263 268 271 274 277 280 283 286 289 291 293 295 297 299 300 302 303 304 305 305 306 307 309 310 310 310 311 311 311 310 308 307 304 302 300 297 295 292
252 253 254 256 260 263 267 270 273 276 279 281 284 287 289 292 294 295 297 298 299 301 301 302 303 303 305 306 307 307 308 308 308 308 307 307 305 302 300 298 296 293 291
256 257 257 259 261 264 267 269 272 276 278 280 283 286 288 291 292 294 295 296 297 298 299 300 300 301 302 304 304 305 306 306 307 306 305 304 303 300 298 297 295 292 289
260 260 260 261 263 265 267 269 272 274 277 279 281 284 287 290 291 292 293 294 295 296 297 298 298 299 301 302 303 304 305 305 305 305 304 303 301 299 297 296 294 292 289
262 262 263 264 265 267 269 270 272 274 276 278 279 282 285 288 290 290 291 292 293 294 295 296 297 298 300 301 302 303 303 303 303 303 302 301 300 298 297 295 293 291 288
262 262 264 265 266 268 270 271 272 274 276 278 280 281 283 286 288 290 291 291 292 293 294 295 296 297 298 299 300 301 302 301 301 301 300 299 298 297 295 294 292 290 287
261 262 263 265 267 270 273 273 274 275 278 280 281 282 283 284 285 286 287 288 289 290 291 292 293 295 296 297 298 299 300 299 299 299 298 297 296 294 293 292 291 290 287
261 263 265 267 269 271 274 275 275 277 279 281 282 283 284 285 285 285 285 287 287 289 289 290 292 293 294 295 297 298 298 298 298 297 297 295 294 292 291 291 290 288 287
263 265 266 268 271 272 274 276 277 278 280 280 281 282 283 284 285 286 286 287 287 288 289 290 291 292 294 295 296 296 296 297 296 296 295 293 291 290 290 289 288 286 285
265 266 268 270 271 273 275 276 277 279 280 280 280 281 282 284 285 286 286 287 287 288 289 290 291 292 293 294 295 295 295 295 294 294 293 291 290 290 289 288 286 284 284
264 266 268 270 271 273 274 275 276 278 279 280 280 281 282 283 284 285 285 286 286 287 289 289 290 291 292 293 294 293 293 293 293 292 291 290 289 289 287 287 285 284 282
266 268 269 270 272 273 274 275 276 277 278 279 280 280 281 282 283 283 284 285 285 286 287 288 289 290 290 291 292 292 291 291 291 290 289 289 288 288 287 287 285 284 282
267 269 270 271 272 273 274 275 277 278 279 279 280 280 281 282 282 282 283 283 284 285 285 286 287 288 288 289 289 289 289 289 287 288 287 287 287 287 288 287 285 283 281
267 268 268 270 272 274 274 275 276 278 278 279 279 279 280 280 281 281 282 282 283 283 284 285 285 286 286 286 286 286 286 286 285 285 285 285 286 287 287 285 285 284 282
268 268 270 271 272 273 274 275 276 277 278 278 278 278 279 279 279 279 280 281 281 282 282 283 283 283 283 283 283 283 283 282 283 283 283 283 285 286 286 285 284 283 282
267 269 270 272 273 274 274 275 276 277 277 278 278 279 279 279 278 278 279 279 280 280 281 281 281 281 281 281 280 280 280 280 281 281 281 283 284 285 284 285 284 284 283
267 269 270 272 273 274 274 275 276 276 277 277 278 278 278 278 277 277 278 278 278 279 279 279 279 279 279 278 277 277 277 278 279 279 281 282 283 284 284 284 284 283 283
267 269 271 272 273 274 275 276 276 276 276 276 276 276 277 276 276 276 277 277 277 277 278 278 277 277 276 275 274 275 276 277 278 279 280 281 282 283 284 284 284 283 283
267 269 271 273 274 275 276 276 277 276 276 276 276 276 276 276 276 276 276 277 276 276 276 276 274 273 273 273 273 274 275 276 277 278 279 280 281 283 284 284 284 284 283
268 269 271 273 275 276 277 278 278 278 277 276 276 276 276 275 275 275 275 275 274 273 273 272 271 272 272 272 273 273 274 276 277 278 278 280 282 283 284 284 284 284 284
268 270 271 273 275 276 277 278 278 278 277 276 276 276 275 275 274 274 273 272 272 271 270 270 270 270 271 272 274 274 275 277 278 278 279 281 282 283 283 284 284 284 283
268 269 271 273 274 275 277 278 277 277 276 275 275 275 274 273 273 272 271 271 270 270 270 270 270 271 272 274 275 276 277 278 279 280 281 282 283 283 283 283 284 284 283
268 269 271 273 274 275 276 277 276 276 276 274 274 273 273 272 272 271 270 269 270 269 268 269 270 271 273 275 276 277 277 278 280 281 282 283 283 283 283 283 283 283 283
268 269 271 272 274 275 275 275 275 275 275 274 273 272 272 272 271 270 269 269 269 269 269 270 271 272 274 276 277 278 279 280 281 282 283 283 284 284 284 284 284 284 283
Height
5862 5863 5864 5865 5865 5865 5865 5865 5865 5864 5864 5863 5862 5861 5859 5858 5856 5855 5853 5851 5849 5846 5844 5841 5838 5835 5832 5829 5826 5822 5818 5815 5811 5808 5805 5801 5798 5795 5792 5790 5787 5785 5783
5858 5859 5860 5860 5861 5861 5861 5861 5861 5860 5860 5859 5858 5857 5855 5854 5852 5850 5848 5846 5844 5841 5839 5836 5833 5830 5827 5824 5820 5816 5812 5809 5806 5802 5799 5795 5792 5789 5786 5784 5782 5779 5778
5853 5854 5855 5855 5856 5856 5856 5856 5856 5856 5855 5854 5853 5852 5850 5849 5847 5845 5843 5841 5839 5836 5833 5830 5827 5824 5821 5818 5814 5810 5806 5803 5799 5796 5792 5789 5786 5783 5780 5778 5775 5773 5772
5847 5848 5849 5850 5851 5851 5851 5851 5851 5851 5850 5849 5848 5847 5845 5843 5841 5839 5837 5835 5832 5830 5827 5824 5821 5818 5815 5811 5808 5804 5800 5796 5793 5789 5786 5782 5779 5776 5773 5771 5769 5767 5765
5841 5842 5843 5844 5844 5845 5845 5845 5845 5844 5844 5843 5842 5841 5839 5837 5835 5833 5830 5828 5825 5823 5820 5817 5814 5811 5808 5805 5801 5797 5793 5789 5786 5782 5778 5775 5772 5769 5766 5764 5762 5760 5759
5834 5835 5836 5837 5837 5838 5838 5838 5838 5837 5837 5836 5835 5834 5832 5830 5828 5825 5823 5820 5818 5815 5813 5810 5807 5804 5801 5797 5794 5790 5786 5782 5778 5775 5771 5767 5764 5762 5759 5757 5755 5753 5751
5827 5828 5829 5829 5830 5830 5830 5830 5830 5830 5829 5828 5828 5827 5825 5822 5820 5818 5815 5812 5810 5807 5804 5802 5799 5796 5793 5790 5786 5782 5779 5775 5771 5767 5764 5760 5757 5754 5751 5749 5747 5745 5744
5819 5820 5821 5821 5821 5822 5822 5821 5821 5821 5820 5819 5818 5818 5817 5816 5812 5809 5806 5803 5801 5798 5796 5793 5790 5787 5784 5781 5778 5774 5771 5767 5763 5760 5756 5753 5750 5747 5744 5741 5739 5737 5736
5811 5811 5812 5812 5813 5813 5813 5813 5812 5812 5811 5810 5808 5807 5807 5806 5804 5802 5797 5794 5792 5789 5787 5784 5782 5779 5776 5773 5770 5766 5763 5759 5755 5752 5748 5745 5742 5739 5736 5734 5731 5729 5728
5802 5802 5803 5803 5803 5804 5804 5803 5803 5802 5801 5800 5798 5797 5796 5794 5793 5792 5789 5785 5782 5780 5778 5775 5773 5770 5767 5764 5761 5757 5754 5750 5747 5743 5740 5737 5734 5731 5729 5726 5724 5722 5720
5792 5793 5793 5793 5793 5794 5794 5793 5792 5792 5791 5790 5788 5786 5785 5783 5781 5780 5779 5776 5773 5771 5768 5766 5763 5760 5757 5754 5751 5748 5744 5741 5738 5734 5731 5728 5725 5723 5720 5718 5716 5714 5713
5782 5783 5783 5783 5783 5783 5783 5782 5782 5781 5780 5779 5777 5776 5774 5773 5771 5769 5767 5765 5762 5760 5758 5755 5753 5750 5747 5744 5741 5738 5735 5731 5728 5725 5722 5720 5717 5715 5712 5710 5709 5707 5705
5772 5772 5772 5772 5772 5772 5772 5771 5771 5770 5769 5768 5767 5765 5764 5762 5760 5758 5756 5754 5752 5749 5747 5745 5742 5740 5737 5734 5731 5728 5725 5722 5719 5716 5714 5711 5709 5707 5705 5703 5701 5699 5698
5761 5761 5761 5761 5761 5761 5760 5760 5759 5758 5758 5756 5755 5754 5752 5750 5749 5747 5745 5743 5741 5739 5737 5734 5732 5729 5726 5724 5721 5718 5715 5712 5710 5707 5705 5703 5701 5699 5697 5695 5693 5692 5691
5750 5750 5750 5750 5749 5749 5749 5748 5747 5746 5746 5744 5743 5742 5740 5739 5737 5735 5733 5731 5730 5728 5726 5723 5721 5718 5716 5713 5710 5708 5705 5703 5701 5698 5696 5695 5693 5691 5689 5687 5686 5685 5683
5738 5738 5738 5738 5738 5737 5737 5736 5735 5734 5733 5732 5731 5729 5728 5727 5725 5723 5721 5719 5718 5716 5714 5712 5710 5707 5705 5703 5700 5698 5696 5694 5692 5690 5688 5687 5685 5683 5681 5680 5679 5677 5676
5726 5726 5726 5725 5725 5724 5724 5723 5723 5722 5721 5719 5718 5717 5715 5714 5712 5711 5709 5707 5705 5704 5702 5700 5698 5696 5694 5692 5690 5688 5686 5685 5683 5682 5680 5679 5677 5676 5674 5673 5672 5670 5669
5714 5713 5713 5713 5712 5712 5711 5711 5710 5709 5708 5707 5705 5704 5703 5701 5700 5698 5697 5695 5694 5692 5690 5689 5687 5685 5684 5682 5680 5679 5677 5676 5675 5673 5672 5671 5669 5668 5667 5665 5664 5663 5662
5702 5702 5702 5701 5701 5700 5699 5698 5697 5696 5695 5694 5693 5691 5690 5689 5687 5686 5685 5683 5682 5680 5679 5678 5676 5675 5673 5672 5671 5670 5669 5667 5666 5665 5664 5663 5661 5660 5659 5658 5657 5656 5655
5691 5691 5690 5690 5689 5688 5687 5686 5685 5684 5683 5682 5680 5679 5678 5677 5675 5674 5673 5672 5671 5669 5668 5667 5666 5665 5664 5663 5662 5661 5660 5659 5658 5657 5656 5655 5653 5652 5651 5650 5649 5648 5647
5680 5680 5679 5678 5678 5677 5676 5674 5673 5672 5671 5669 5668 5667 5666 5665 5664 5663 5662 5661 5660 5659 5658 5657 5656 5655 5654 5654 5653 5652 5651 5650 5649 5649 5648 5646 5645 5644 5643 5642 5641 5639 5638
5669 5669 5668 5668 5667 5666 5665 5663 5662 5660 5659 5658 5657 5656 5655 5654 5653 5652 5651 5650 5649 5648 5648 5647 5646 5646 5645 5645 5644 5643 5643 5642 5641 5640 5639 5638 5637 5636 5634 5633 5632 5630 5629
5658 5658 5658 5657 5656 5655 5654 5652 5651 5649 5648 5647 5646 5645 5644 5643 5642 5641 5640 5640 5639 5638 5638 5638 5637 5637 5636 5636 5635 5635 5634 5633 5632 5631 5630 5629 5628 5626 5625 5624 5622 5621 5620
5647 5647 5647 5646 5645 5644 5643 5641 5640 5639 5637 5636 5635 5634 5634 5633 5632 5631 5631 5630 5629 5629 5629 5628 5628 5628 5627 5627 5626 5626 5625 5624 5623 5622 5621 5620 5618 5617 5615 5614 5612 5611 5609
5637 5636 5636 5635 5634 5633 5632 5630 5629 5628 5627 5626 5625 5624 5623 5623 5622 5622 5621 5621 5621 5620 5620 5619 5619 5619 5618 5618 5617 5616 5615 5615 5614 5612 5611 5610 5608 5606 5605 5603 5601 5599 5598
5626 5625 5625 5624 5623 5622 5621 5620 5619 5618 5617 5616 5615 5615 5614 5614 5613 5613 5613 5612 5612 5612 5611 5611 5611 5610 5609 5609 5608 5607 5606 5605 5604 5602 5601 5599 5597 5595 5594 5592 5590 5588 5586